Weather History for De Ridder, LA

Change the Weather History Date:

Tuesday, October 30, 2012

  Actual Average (KPOE) Record (KPOE)
Temperature  
Mean Temperature 52 °F -  
Max Temperature 69 °F 72 °F 84 °F (1999)
Min Temperature 35 °F 52 °F 37 °F (2012)
Degree Days  
Heating Degree Days 13    
Growing Degree Days 2 (Base 50)    
Moisture  
Dew Point 38 °F    
Average Humidity 54    
Maximum Humidity 100    
Minimum Humidity 25    
Precipitation  
Precipitation 0.00 in - - ()
Sea Level Pressure  
Sea Level Pressure 30.10 in    
Wind  
Wind Speed 1 mph (SW)    
Max Wind Speed 9 mph    
Max Gust Speed -    
Visibility 10 miles    
Events      
Averages and records for this station are not official NWS values.
T = Trace of Precipitation, MM = Missing Value Source: NWS Daily Summary

Daily Weather History Graph

Daily Weather History Graph

Search for Another Location

Airport:

Trip Planner

Search our weather history database for the weather conditions in past years. The results will help you decide how hot, cold, wet, or windy it might be!

Date:

Astronomy

Oct. 30, 2012 Rise Set
Actual Time 7:27 AM CDT 6:26 PM CDT
Civil Twilight 7:02 AM CDT 6:51 PM CDT
Nautical Twilight 6:33 AM CDT 7:19 PM CDT
Astronomical Twilight 6:05 AM CDT 7:47 PM CDT
Moon 7:02 PM CDT (10/30) 8:09 AM CDT (10/30)
Length of Visible Light 11h 48m
Length of Day
10h 59m
Full, 99% of the Moon is Illuminated
Oct 30
Full
Nov 6
Last Quarter
Nov 13
New
Nov 20
First Quarter
Nov 28
Full

Hourly Weather History & Observations

Time (CDT) Temp. Dew Point Humidity Pressure Visibility Wind Dir Wind Speed Gust Speed Precip Events Conditions
12:15 AM 41.0 °F 37.4 °F 87% 30.17 in 10.0 mi Calm Calm - N/A   Scattered Clouds
12:35 AM 41.0 °F 37.4 °F 87% 30.16 in 10.0 mi Calm Calm - N/A   Scattered Clouds
12:55 AM 41.0 °F 37.4 °F 87% 30.16 in 10.0 mi Calm Calm - N/A   Unknown
1:15 AM 41.0 °F - N/A% 30.16 in 10.0 mi Calm Calm - N/A   Unknown
1:35 AM 39.2 °F - N/A% 30.16 in 10.0 mi Calm Calm - N/A   Unknown
1:55 AM 39.2 °F - N/A% 30.16 in 10.0 mi Calm Calm - N/A   Scattered Clouds
2:55 AM 37.4 °F - N/A% 30.16 in 10.0 mi Calm Calm - N/A   Unknown
3:15 AM 37.4 °F - N/A% 30.15 in 10.0 mi Calm Calm - N/A   Scattered Clouds
3:55 AM 37.4 °F - N/A% 30.14 in 10.0 mi Calm Calm - N/A   Scattered Clouds
4:15 AM 37.4 °F - N/A% 30.14 in 10.0 mi Calm Calm - N/A   Unknown
4:35 AM 35.6 °F - N/A% 30.14 in 10.0 mi Calm Calm - N/A   Scattered Clouds
5:15 AM 35.6 °F - N/A% 30.14 in 10.0 mi Calm Calm - N/A   Unknown
5:35 AM 35.6 °F - N/A% 30.14 in 10.0 mi Calm Calm - N/A   Unknown
5:55 AM 35.6 °F - N/A% 30.14 in 10.0 mi Calm Calm - N/A   Clear
6:15 AM 35.6 °F - N/A% 30.14 in 10.0 mi Calm Calm - N/A   Clear
6:35 AM 35.6 °F - N/A% 30.14 in 10.0 mi Calm Calm - N/A   Unknown
6:55 AM 35.6 °F - N/A% 30.14 in 10.0 mi Calm Calm - N/A   Scattered Clouds
7:15 AM 35.6 °F - N/A% 30.14 in 10.0 mi Calm Calm - N/A   Scattered Clouds
7:35 AM 35.6 °F - N/A% 30.14 in 10.0 mi Calm Calm - N/A   Scattered Clouds
7:55 AM 35.6 °F - N/A% 30.15 in 10.0 mi Calm Calm - N/A   Scattered Clouds
8:55 AM 42.8 °F - N/A% 30.15 in 10.0 mi Calm Calm - N/A   Scattered Clouds
9:15 AM 46.4 °F 39.2 °F 76% 30.15 in 10.0 mi Calm Calm - N/A   Scattered Clouds
9:35 AM 50.0 °F 41.0 °F 71% 30.15 in 10.0 mi Calm Calm - N/A   Scattered Clouds
9:55 AM 53.6 °F 37.4 °F 54% 30.16 in 10.0 mi South 4.6 mph - N/A   Scattered Clouds
10:15 AM 55.4 °F 35.6 °F 47% 30.15 in 10.0 mi SSW 4.6 mph - N/A   Scattered Clouds
10:55 AM 59.0 °F 35.6 °F 42% 30.15 in 10.0 mi Calm Calm - N/A   Scattered Clouds
11:15 AM 60.8 °F 35.6 °F 39% 30.15 in 10.0 mi Calm Calm - N/A   Scattered Clouds
12:15 PM 64.4 °F 33.8 °F 32% 30.13 in 10.0 mi SW 9.2 mph - N/A   Scattered Clouds
12:35 PM - - N/A% - - North - - N/A   Unknown
1:35 PM 68.0 °F 33.8 °F 28% 30.08 in 10.0 mi Calm Calm - N/A   Scattered Clouds
1:55 PM 68.0 °F 33.8 °F 28% 30.07 in 10.0 mi SSE 3.5 mph - N/A   Unknown
2:15 PM 69.8 °F 33.8 °F 27% 30.07 in 10.0 mi West 8.1 mph - N/A   Unknown
2:35 PM 69.8 °F 33.8 °F 27% 30.06 in 10.0 mi West 6.9 mph - N/A   Scattered Clouds
3:15 PM 69.8 °F 33.8 °F 27% 30.04 in 10.0 mi WSW 4.6 mph - N/A   Unknown
4:15 PM 69.8 °F 32.0 °F 25% 30.03 in 10.0 mi SSW 5.8 mph - N/A   Scattered Clouds
4:35 PM 69.8 °F 32.0 °F 25% 30.02 in 10.0 mi West 3.5 mph - N/A   Scattered Clouds
5:35 PM 69.8 °F 33.8 °F 27% 30.02 in 10.0 mi SW 5.8 mph - N/A   Scattered Clouds
5:55 PM 68.0 °F 33.8 °F 28% 30.02 in 10.0 mi SW 4.6 mph - N/A   Scattered Clouds
6:15 PM 64.4 °F 33.8 °F 32% 30.03 in 10.0 mi SW 3.5 mph - N/A   Scattered Clouds
6:55 PM 60.8 °F 39.2 °F 45% 30.03 in 10.0 mi Calm Calm - N/A   Scattered Clouds
7:15 PM 57.2 °F 41.0 °F 55% 30.03 in 10.0 mi Calm Calm - N/A   Scattered Clouds
7:35 PM 55.4 °F 39.2 °F 54% 30.04 in 10.0 mi Calm Calm - N/A   Scattered Clouds
7:55 PM 55.4 °F 37.4 °F 51% 30.04 in 10.0 mi Calm Calm - N/A   Scattered Clouds
8:15 PM 53.6 °F 39.2 °F 58% 30.04 in 10.0 mi Calm Calm - N/A   Scattered Clouds
8:35 PM 53.6 °F 39.2 °F 58% 30.05 in 10.0 mi Calm Calm - N/A   Scattered Clouds
9:15 PM 55.4 °F 42.8 °F 63% 30.05 in 10.0 mi Calm Calm - N/A   Scattered Clouds
9:35 PM 55.4 °F 44.6 °F 67% 30.05 in 10.0 mi Calm Calm - N/A   Scattered Clouds
9:55 PM 53.6 °F 44.6 °F 72% 30.05 in 10.0 mi South 3.5 mph - N/A   Scattered Clouds
10:15 PM 53.6 °F 46.4 °F 77% 30.05 in 10.0 mi Calm Calm - N/A   Scattered Clouds
10:35 PM 53.6 °F 46.4 °F 77% 30.05 in 10.0 mi Calm Calm - N/A   Scattered Clouds
11:35 PM 53.6 °F 51.8 °F 94% 30.04 in 10.0 mi Calm Calm - N/A   Scattered Clouds
11:55 PM 53.6 °F 53.6 °F 100% 30.04 in 10.0 mi Calm Calm - N/A   Scattered Clouds